Date String (YYYY-MM-DD hh:mm:ss) UTC,Instrument flags,Ambient pressure (hPa),Sample flow (lpm),Bypass flow (lpm),Sample temperature (°C),Ambient temperature (°C),ASC tube jacket temperature (°C),LED temperature (°C),Box temperature (°C),Sample RH (%),Span deviation,Mass concentration (μg/m³),Mass concentration (μg/m³),Mass concentration (μg/m³)
DateTimeUTC,F1_M11,P_M11,Q1_M11,Q2_M11,T1_M11,T2_M11,T3_M11,T4_M11,T5_M11,U1_M11,ZSPAN_M11,X0_M11,X2_M11,X1_M11
2021-10-10 11:00:00,,0823.4,5.00,0.00,28.3,27.2,00.0,37.5,30.0,12.7,0000.0,0005.36,0001.88,0001.43
2021-10-10 11:01:00,,0823.4,5.01,0.00,28.2,27.2,00.0,37.5,30.0,12.8,0000.0,0005.62,0001.87,0001.41
2021-10-10 11:02:00,,0823.4,5.00,0.00,28.2,27.1,00.0,37.5,29.9,12.9,0000.0,0005.55,0001.84,0001.41
2021-10-10 11:03:00,,0823.4,4.99,0.00,28.1,27.1,00.0,37.4,29.9,13.0,0000.0,0005.57,0001.84,0001.40
2021-10-10 11:04:00,,0823.4,5.00,0.00,28.1,27.1,00.0,37.4,29.8,13.3,0000.0,0005.53,0001.83,0001.39
2021-10-10 11:05:00,,0823.4,5.00,0.00,28.0,27.0,00.0,37.4,29.7,13.5,0000.0,0005.63,0001.86,0001.40
2021-10-10 11:06:00,,0823.4,5.01,0.00,28.0,26.9,00.0,37.4,29.6,13.5,0000.0,0005.14,0001.87,0001.39
2021-10-10 11:07:00,,0823.4,5.01,0.00,27.9,26.9,00.0,37.3,29.6,13.4,0000.0,0004.25,0001.86,0001.38
2021-10-10 11:08:00,,0823.4,5.01,0.00,27.8,26.8,00.0,37.3,29.5,13.5,0000.0,0004.06,0001.80,0001.38
2021-10-10 11:09:00,,0823.4,4.99,0.00,27.8,26.8,00.0,37.3,29.5,13.4,0000.0,0004.05,0001.79,0001.38
2021-10-10 11:10:00,,0823.4,5.00,0.00,27.8,26.7,00.0,37.2,29.4,13.4,0000.0,0004.10,0001.80,0001.37
2021-10-10 11:11:00,,0823.4,5.00,0.00,27.7,26.7,00.0,37.2,29.4,13.4,0000.0,0003.58,0001.79,0001.37
2021-10-10 11:12:00,,0823.4,5.01,0.00,27.7,26.7,00.0,37.1,29.3,13.4,0000.0,0003.04,0001.76,0001.36
2021-10-10 11:13:00,,0823.5,5.01,0.00,27.7,26.6,00.0,37.1,29.3,13.3,0000.0,0003.21,0001.78,0001.35
2021-10-10 11:14:00,,0823.4,5.00,0.00,27.6,26.6,00.0,37.1,29.3,13.2,0000.0,0003.22,0001.78,0001.35
2021-10-10 11:15:00,,0823.4,4.99,0.00,27.6,26.6,00.0,37.0,29.2,13.3,0000.0,0003.17,0001.76,0001.34
2021-10-10 11:16:00,,0823.4,5.01,0.00,27.5,26.6,00.0,37.0,29.2,13.3,0000.0,0003.06,0001.71,0001.33
2021-10-10 11:17:00,,0823.4,5.00,0.00,27.5,26.5,00.0,37.0,29.2,13.5,0000.0,0002.93,0001.67,0001.31
2021-10-10 11:18:00,,0823.4,5.00,0.00,27.5,26.5,00.0,36.9,29.2,13.4,0000.0,0002.80,0001.66,0001.30
2021-10-10 11:19:00,,0823.4,5.00,0.00,27.5,26.5,00.0,36.9,29.2,13.2,0000.0,0002.84,0001.66,0001.29
2021-10-10 11:20:00,,0823.5,5.00,0.00,27.5,26.5,00.0,36.9,29.2,13.3,0000.0,0003.04,0001.69,0001.29
2021-10-10 11:21:00,,0823.5,5.00,0.00,27.5,26.5,00.0,36.8,29.2,13.2,0000.0,0003.12,0001.70,0001.28
2021-10-10 11:22:00,,0823.4,5.01,0.00,27.4,26.5,00.0,36.8,29.1,13.2,0000.0,0002.96,0001.66,0001.29
2021-10-10 11:23:00,,0823.5,5.01,0.00,27.4,26.5,00.0,36.8,29.1,13.2,0000.0,0002.85,0001.64,0001.29
2021-10-10 11:24:00,,0823.5,4.99,0.00,27.4,26.5,00.0,36.8,29.1,13.3,0000.0,0002.84,0001.66,0001.31
2021-10-10 11:25:00,,0823.6,5.00,0.00,27.4,26.5,00.0,36.8,29.1,13.2,0000.0,0002.92,0001.70,0001.32
2021-10-10 11:26:00,,0823.6,5.02,0.00,27.4,26.4,00.0,36.7,29.1,13.1,0000.0,0003.12,0001.73,0001.33
2021-10-10 11:27:00,,0823.6,5.00,0.00,27.4,26.4,00.0,36.7,29.1,13.1,0000.0,0003.36,0001.78,0001.35
2021-10-10 11:28:00,,0823.7,5.01,0.00,27.4,26.5,00.0,36.7,29.1,13.1,0000.0,0003.42,0001.80,0001.35
2021-10-10 11:29:00,,0823.7,4.99,0.00,27.4,26.5,00.0,36.7,29.1,13.1,0000.0,0004.09,0001.81,0001.36
2021-10-10 11:30:00,,0823.7,5.00,0.00,27.4,26.5,00.0,36.7,29.1,13.1,0000.0,0004.36,0001.80,0001.36
2021-10-10 11:31:00,,0823.7,5.01,0.00,27.4,26.5,00.0,36.6,29.1,13.0,0000.0,0004.22,0001.79,0001.37
2021-10-10 11:32:00,,0823.7,5.01,0.00,27.4,26.5,00.0,36.6,29.2,12.9,0000.0,0004.09,0001.79,0001.38
2021-10-10 11:33:00,,0823.7,5.00,0.00,27.4,26.5,00.0,36.6,29.1,13.0,0000.0,0004.22,0001.84,0001.37
2021-10-10 11:34:00,,0823.7,5.00,0.00,27.4,26.5,00.0,36.6,29.1,13.2,0000.0,0004.29,0001.85,0001.37
2021-10-10 11:35:00,,0823.7,4.98,0.00,27.3,26.5,00.0,36.6,29.1,13.2,0000.0,0004.31,0001.85,0001.37
2021-10-10 11:36:00,,0823.7,5.00,0.00,27.3,26.5,00.0,36.6,29.1,13.6,0000.0,0004.61,0001.83,0001.37
2021-10-10 11:37:00,,0823.7,5.01,0.00,27.3,26.5,00.0,36.6,29.1,14.1,0000.0,0004.82,0001.85,0001.37
2021-10-10 11:38:00,,0823.7,5.01,0.00,27.3,26.5,00.0,36.5,29.1,14.0,0000.0,0004.69,0001.86,0001.38
2021-10-10 11:39:00,,0823.7,4.99,0.00,27.3,26.4,00.0,36.5,29.0,14.1,0000.0,0004.62,0001.87,0001.39
2021-10-10 11:40:00,,0823.7,5.00,0.00,27.3,26.4,00.0,36.5,29.0,14.1,0000.0,0004.43,0001.87,0001.41
2021-10-10 11:41:00,,0823.7,5.00,0.00,27.3,26.4,00.0,36.5,29.0,13.9,0000.0,0003.96,0001.92,0001.43
2021-10-10 11:42:00,,0823.7,5.00,0.00,27.3,26.4,00.0,36.5,29.0,13.8,0000.0,0004.08,0001.95,0001.45
2021-10-10 11:43:00,,0823.7,5.01,0.00,27.2,26.4,00.0,36.5,29.0,13.6,0000.0,0004.19,0001.98,0001.47
2021-10-10 11:44:00,,0823.7,4.99,0.00,27.2,26.4,00.0,36.5,29.0,13.5,0000.0,0004.12,0001.96,0001.48
2021-10-10 11:45:00,,0823.7,5.00,0.00,27.2,26.3,00.0,36.5,29.0,13.3,0000.0,0004.18,0001.93,0001.50
2021-10-10 11:46:00,,0823.7,5.00,0.00,27.2,26.3,00.0,36.4,28.9,13.1,0000.0,0004.33,0001.92,0001.50
2021-10-10 11:47:00,,0823.7,5.00,0.00,27.2,26.3,00.0,36.4,28.9,13.1,0000.0,0004.34,0001.95,0001.51
2021-10-10 11:48:00,,0823.7,5.01,0.00,27.1,26.3,00.0,36.4,28.8,13.2,0000.0,0003.81,0001.92,0001.51
2021-10-10 11:49:00,,0823.7,5.00,0.00,27.1,26.2,00.0,36.4,28.8,13.3,0000.0,0003.79,0001.89,0001.51
2021-10-10 11:50:00,,0823.7,4.99,0.00,27.0,26.2,00.0,36.4,28.7,13.4,0000.0,0003.76,0001.88,0001.51
2021-10-10 11:51:00,,0823.7,4.99,0.00,27.0,26.1,00.0,36.3,28.7,13.3,0000.0,0003.54,0001.86,0001.50
2021-10-10 11:52:00,,0823.7,5.01,0.00,27.0,26.1,00.0,36.3,28.7,13.4,0000.0,0003.32,0001.82,0001.49
2021-10-10 11:53:00,,0823.7,5.01,0.00,26.9,26.1,00.0,36.3,28.6,13.4,0000.0,0003.35,0001.83,0001.49
2021-10-10 11:54:00,,0823.7,5.00,0.00,26.9,26.0,00.0,36.3,28.6,13.3,0000.0,0004.82,0001.84,0001.48
2021-10-10 11:55:00,,0823.7,5.01,0.00,26.9,26.0,00.0,36.2,28.6,13.3,0000.0,0005.16,0001.82,0001.48
2021-10-10 11:56:00,,0823.7,4.99,0.00,26.9,26.0,00.0,36.2,28.6,13.3,0000.0,0005.14,0001.82,0001.47
2021-10-10 11:57:00,,0823.7,5.00,0.00,26.9,26.0,00.0,36.2,28.5,13.4,0000.0,0005.10,0001.83,0001.48
2021-10-10 11:58:00,,0823.7,5.01,0.00,26.8,25.9,00.0,36.2,28.5,13.5,0000.0,0004.86,0001.84,0001.49
2021-10-10 11:59:00,,0823.7,5.01,0.00,26.8,25.9,00.0,36.1,28.5,13.5,0000.0,0004.98,0001.83,0001.50
